Location: Newark
(54.6833°N, 25.2833°E)
Time: 08:54:12
(UTC+00:00)

Altair - Pass Details

Date: 16 November 2019
Orbit: 1502 x 1682 km, 47.2° (Epoch: 09 December)

Event Time Altitude Azimuth Distance (km) Brightness Sun altitude
Rises 05:19:47 0° 263° (W) 4,638 9.5 -4.7°
Reaches altitude 10° 05:22:51 10° 259° (W) 3,663 9.0 -4.3°
Maximum altitude 05:31:42 55° 185° (S) 1,793 8.1 -3.2°
Drops below altitude 10° 05:40:49 10° 112° (ESE) 3,760 11.5 -2.0°
Sets 05:44:01 0° 108° (ESE) 4,768 12.2 -1.6°
